WA6MHA-11 Weather Reports


time (UTC)temp
C
wind
direction
speed
KPH
gust
KPH
rain 1hr
cm
rain 24hr
cm
rain mn
cm
humidity
%
barometer
mb
20260906220206 21 283 1.6 1.6 0.00 0.00 0.00 60 1015.9
20260906215759 21 274 1.6 1.6 0.00 0.00 0.00 59 1015.8
20260906215357 21 270 1.6 3.2 0.00 0.00 0.00 58 1016.0
20260906214555 21 355 1.6 8.0 0.00 0.00 0.00 57 1016.1
20260906214154 21 10 4.8 6.4 0.00 0.00 0.00 56 1016.1
20260906213753 22 333 0.0 1.6 0.00 0.00 0.00 56 1016.6
20260906212549 22 279 1.6 3.2 0.00 0.00 0.00 55 1016.1
20260906212148 22 274 0.0 3.2 0.00 0.00 0.00 55 1016.0
20260906211345 22 283 4.8 4.8 0.00 0.00 0.00 55 1016.1
20260906210542 22 288 1.6 1.6 0.00 0.00 0.00 55 1015.9
20260906210141 22 312 0.0 1.6 0.00 0.00 0.00 55 1015.6
20260906205740 22 193 0.0 3.2 0.00 0.00 0.00 55 1015.8
20260906205339 22 146 0.0 1.6 0.00 0.00 0.00 56 1015.8
20260906204536 22 42 0.0 0.0 0.00 0.00 0.00 56 1015.6
20260906204135 21 99 0.0 1.6 0.00 0.00 0.00 56 1015.7
20260906203733 21 45 1.6 4.8 0.00 0.00 0.00 56 1015.6
20260906203332 21 137 4.8 4.8 0.00 0.00 0.00 57 1015.6
20260906203230 21 137 4.8 4.8 0.00 0.00 0.00 58 1015.7
20260906202932 21 137 4.8 4.8 0.00 0.00 0.00 58 1015.7
20260906202529 21 90 3.2 3.2 0.00 0.00 0.00 57 1015.7
20260906201329 21 233 0.0 1.6 0.00 0.00 0.00 58 1016.1
20260906200125 21 28 0.0 1.6 0.00 0.00 0.00 59 1016.3
20260906195720 21 303 0.0 3.2 0.00 0.00 0.00 59 1016.2
20260906195321 21 306 0.0 3.2 0.00 0.00 0.00 60 1016.3
20260906194921 21 285 1.6 3.2 0.00 0.00 0.00 60 1016.4
20260906194518 20 274 1.6 1.6 0.00 0.00 0.00 61 1016.3
20260906192911 20 279 1.6 6.4 0.00 0.00 0.00 62 1016.6
20260906185701 19 29 1.6 6.4 0.00 0.00 0.00 61 1016.8
20260906185300 19 307 1.6 4.8 0.00 0.00 0.00 60 1017.5
20260906184900 19 301 3.2 4.8 0.00 0.00 0.00 60 1017.7
20260906184457 19 297 4.8 4.8 0.00 0.00 0.00 59 1017.6
20260906184057 19 274 3.2 3.2 0.00 0.00 0.00 60 1017.4
20260906183656 19 283 0.0 0.0 0.00 0.00 0.00 60 1017.3
20260906182852 18 38 0.0 0.0 0.00 0.00 0.00 59 1017.3
20260906182451 18 16 0.0 1.6 0.00 0.00 0.00 59 1017.3
20260906182049 18 301 0.0 1.6 0.00 0.00 0.00 59 1017.6
20260906181648 18 281 1.6 1.6 0.00 0.00 0.00 59 1017.6
20260906181247 18 45 0.0 0.0 0.00 0.00 0.00 59 1017.6
20260906180446 -17 184 1.6 1.6 0.00 0.00 0.00 59 1017.7
20260906180043 18 232 0.0 1.6 0.00 0.00 0.00 60 1017.7
20260906175240 18 60 1.6 4.8 0.00 0.00 0.00 59 1017.3
20260906174839 18 47 1.6 3.2 0.00 0.00 0.00 59 1017.5
20260906172833 18 292 0.0 1.6 0.00 0.00 0.00 59 1017.8
20260906172432 18 137 1.6 1.6 0.00 0.00 0.00 58 1017.8
20260906172030 18 298 0.0 1.6 0.00 0.00 0.00 59 1017.8
20260906171629 18 53 0.0 1.6 0.00 0.00 0.00 59 1017.8
20260906171228 18 234 0.0 3.2 0.00 0.00 0.00 59 1017.8
20260906170826 18 217 3.2 3.2 0.00 0.00 0.00 59 1017.8
20260906170425 18 247 1.6 3.2 0.00 0.00 0.00 59 1017.5
20260906170107 17 303 0.0 1.6 0.00 0.00 0.00 58 1017.2
20260906170024 17 303 0.0 1.6 0.00 0.00 0.00 58 1017.2
20260906164820 17 35 1.6 4.8 0.00 0.00 0.00 58 1017.1
20260906163618 17 348 4.8 4.8 0.00 0.00 0.00 56 1017.3
20260906163215 17 55 3.2 4.8 0.00 0.00 0.00 56 1017.2
20260906162814 17 38 4.8 4.8 0.00 0.00 0.00 55 1017.1
20260906162413 18 38 1.6 3.2 0.00 0.00 0.00 55 1017.2
20260906161609 18 328 0.0 0.0 0.00 0.00 0.00 56 1017.0
20260906161208 18 301 0.0 1.6 0.00 0.00 0.00 56 1016.8
20260906160807 18 184 0.0 0.0 0.00 0.00 0.00 56 1016.7
20260906155603 17 303 1.6 4.8 0.00 0.00 0.00 56 1016.5
20260906154801 17 292 3.2 4.8 0.00 0.00 0.00 56 1016.4
20260906154400 17 310 1.6 6.4 0.00 0.00 0.00 56 1016.3
20260906153958 17 303 1.6 3.2 0.00 0.00 0.03 56 1016.1
20260906153155 17 308 0.0 3.2 0.00 0.00 0.03 56 1016.0
20260906152756 17 274 3.2 3.2 0.00 0.00 0.03 56 1015.8
20260906152355 17 330 1.6 1.6 0.00 0.00 0.03 56 1015.7
20260906151952 17 301 0.0 4.8 0.00 0.00 0.03 56 1015.7
20260906151551 17 288 3.2 4.8 0.00 0.00 0.03 56 1015.7
20260906145939 17 270 3.2 8.0 0.00 0.00 0.03 55 1015.6
20260906145611 17 288 4.8 8.0 0.00 0.00 0.03 55 1015.7
20260906145539 17 288 4.8 8.0 0.00 0.00 0.03 55 1015.7
20260906145137 17 279 4.8 6.4 0.00 0.00 0.03 54 1015.8
20260906143130 17 270 3.2 4.8 0.00 0.00 0.03 53 1015.9
20260906142729 17 283 0.0 3.2 0.00 0.00 0.03 52 1015.8
20260906142328 17 279 1.6 3.2 0.00 0.00 0.03 52 1015.9
20260906141926 17 292 3.2 4.8 0.00 0.00 0.03 52 1016.0
20260906141525 16 288 1.6 3.2 0.00 0.00 0.03 51 1016.0
20260906141124 17 76 1.6 4.8 0.00 0.00 0.03 51 1015.8
20260906140723 17 186 1.6 1.6 0.00 0.00 0.03 51 1015.9
20260906140322 16 283 3.2 4.8 0.00 0.00 0.03 50 1016.1
20260906135920 17 301 3.2 3.2 0.00 0.00 0.03 50 1016.2
20260906135606 17 297 1.6 3.2 0.00 0.00 0.03 49 1016.3
20260906135519 17 297 1.6 3.2 0.00 0.00 0.03 49 1016.3
20260906134318 17 257 3.2 4.8 0.00 0.00 0.03 48 1016.5
20260906131907 18 137 0.0 0.0 0.00 0.00 0.03 44 1016.2
20260906131105 17 126 3.2 8.0 0.00 0.00 0.03 43 1016.0
20260906130302 18 101 8.0 14.5 0.00 0.00 0.03 43 1015.8
20260906125901 18 126 9.7 9.7 0.00 0.00 0.03 42 1015.9
20260906125059 19 177 4.8 11.3 0.00 0.00 0.03 40 1016.2
20260906124657 0 177 11.3 20.9 0.00 0.00 0.03 39 1016.2
20260906124255 20 177 16.1 16.1 0.00 0.00 0.00 39 1015.9
20260906123854 20 182 4.8 4.8 0.00 0.00 0.00 39 1015.2
20260906123453 20 78 3.2 3.2 0.00 0.00 0.00 39 1014.8
20260906122651 20 83 1.6 1.6 0.00 0.00 0.00 39 1014.6
20260906122250 20 182 0.0 1.6 0.00 0.00 0.00 39 1014.5
20260906121848 20 182 1.6 1.6 0.00 0.00 0.00 39 1014.4
20260906121447 20 184 0.0 0.0 0.00 0.00 0.00 39 1014.3
20260906121045 20 45 0.0 0.0 0.00 0.00 0.00 39 1014.2
20260906120243 20 186 0.0 1.6 0.00 0.00 0.00 39 1014.1
20260906115842 20 184 1.6 1.6 0.00 0.00 0.00 39 1014.0
20260906115039 20 283 0.0 0.0 0.00 0.00 0.00 39 1013.9
20260906114638 20 270 0.0 1.6 0.00 0.00 0.00 39 1014.1
20260906114237 20 301 0.0 0.0 0.00 0.00 0.00 39 1014.0
20260906113835 20 346 0.0 1.6 0.00 0.00 0.00 39 1014.0
20260906113434 20 344 0.0 0.0 0.00 0.00 0.00 39 1014.0
20260906113032 20 279 0.0 0.0 0.00 0.00 0.00 40 1014.1
20260906112631 20 279 0.0 1.6 0.00 0.00 0.00 39 1014.2
20260906112230 20 346 0.0 1.6 0.00 0.00 0.00 39 1014.1
20260906111829 20 306 0.0 1.6 0.00 0.00 0.00 39 1014.3
20260906111428 20 193 1.6 1.6 0.00 0.00 0.00 39 1014.3
20260906110625 20 184 0.0 0.0 0.00 0.00 0.00 39 1014.1
20260906110223 20 184 0.0 3.2 0.00 0.00 0.00 39 1014.1
20260906105822 19 180 1.6 1.6 0.00 0.00 0.00 39 1014.2
20260906105024 19 299 1.6 1.6 0.00 0.00 0.00 39 1014.2
20260906104619 19 299 0.0 1.6 0.00 0.00 0.00 39 1014.0
20260906104217 19 308 1.6 1.6 0.00 0.00 0.00 39 1014.2
20260906103816 19 279 1.6 1.6 0.00 0.00 0.00 39 1014.2
20260906103015 19 204 1.6 1.6 0.00 0.00 0.00 39 1014.3
20260906101810 19 303 0.0 0.0 0.00 0.00 0.00
20260906101410 19 306 0.0 0.0 0.00 0.00 0.00 39 1014.1
20260906100606 19 344 0.0 0.0 0.00 0.00 0.00 39 1014.2
20260906095803 19 310 0.0 0.0 0.00 0.00 0.00 39 1014.2
20260906095401 19 299 0.0 0.0 0.00 0.00 0.00 39 1014.2
20260906095000 19 299 0.0 0.0 0.00 0.00 0.00 39 1014.2
20260906094559 19 283 0.0 0.0 0.00 0.00 0.00 39 1014.3
20260906094158 19 274 0.0 0.0 0.00 0.00 0.00 39 1014.2
20260906093757 19 294 0.0 0.0 0.00 0.00 0.00 39 1014.2
20260906093357 19 303 0.0 0.0 0.00 0.00 0.00 39 1014.2
20260906092954 19 303 0.0 0.0 0.00 0.00 0.00 39 1014.3
20260906092634 19 279 0.0 0.0 0.00 0.00 0.00 39 1014.2
20260906092553 19 279 0.0 0.0 0.00 0.00 0.00 39 1014.2
20260906092152 19 279 0.0 0.0 0.00 0.00 0.00 39 1014.3
20260906091750 19 303 0.0 0.0 0.00 0.00 0.00 39 1014.2
20260906091349 19 279 0.0 0.0 0.00 0.00 0.00 39 1014.2
20260906090952 19 330 0.0 0.0 0.00 0.00 0.00 39 1014.2
20260906090546 19 317 0.0 0.0 0.00 0.00 0.00 39 1014.2
20260906090145 19 283 0.0 0.0 0.00 0.00 0.00 39 1014.3
20260906085744 19 274 0.0 0.0 0.00 0.00 0.00 39 1014.3
20260906085419 19 270 0.0 0.0 0.00 0.00 0.00 39 1014.4
20260906085343 19 270 0.0 0.0 0.00 0.00 0.00 39 1014.4
20260906084942 19 312 0.0 0.0 0.00 0.00 0.00 39 1014.4
20260906084540 19 299 0.0 0.0 0.00 0.00 0.00 39 1014.4
20260906084138 19 279 0.0 0.0 0.00 0.00 0.00 39 1014.5
20260906083740 18 270 0.0 0.0 0.00 0.00 0.00 39 1014.7
20260906083336 18 288 0.0 0.0 0.00 0.00 0.00 39 1014.6
20260906082935 18 310 0.0 0.0 0.00 0.00 0.00 39 1014.6
20260906082534 18 301 0.0 0.0 0.00 0.00 0.00 39 1014.6
20260906082133 18 310 0.0 0.0 0.00 0.00 0.00 39 1014.6
20260906081731 18 192 0.0 0.0 0.00 0.00 0.00 39 1014.6
20260906081330 18 277 0.0 0.0 0.00 0.00 0.00 39 1014.7
20260906080928 18 40 0.0 0.0 0.00 0.00 0.00 39 1014.6
20260906080528 18 42 0.0 1.6 0.00 0.00 0.00 39 1014.7
20260906080126 18 301 0.0 0.0 0.00 0.00 0.00 39 1014.7
20260906075726 18 310 0.0 0.0 0.00 0.00 0.00 39 1014.7
20260906075323 18 292 0.0 0.0 0.00 0.00 0.00 39 1014.7
20260906074922 18 297 0.0 0.0 0.00 0.00 0.00 39 1014.6
20260906074521 18 279 0.0 0.0 0.00 0.00 0.00 38 1014.7
20260906074120 19 283 1.6 1.6 0.00 0.00 0.00 38 1014.7
20260906073718 19 274 0.0 0.0 0.00 0.00 0.00 38 1014.7
20260906073317 19 328 0.0 0.0 0.00 0.00 0.00 38 1014.7
20260906072915 19 339 0.0 0.0 0.00 0.00 0.00 38 1014.7
20260906072113 19 283 0.0 0.0 0.00 0.00 0.00 38 1014.6
20260906071714 19 279 0.0 0.0 0.00 0.00 0.00 38 1014.6
20260906070910 19 230 0.0 0.0 0.00 0.00 0.00 37 1014.5
20260906070107 19 274 0.0 1.6 0.00 0.00 0.00 37 1014.5
20260906065706 19 279 0.0 0.0 0.00 0.00 0.00 37 1014.5
20260906065306 19 270 0.0 0.0 0.00 0.00 0.00 37 1014.6
20260906064903 19 279 0.0 0.0 0.00 0.00 0.00 37 1014.5
20260906064503 19 276 0.0 1.6 0.00 0.00 0.00 37 1014.5
20260906064100 19 279 0.0 0.0 0.00 0.00 0.00 37 1014.5
20260906063659 19 279 0.0 0.0 0.00 0.00 0.00 36 1014.5
20260906063258 19 279 0.0 0.0 0.00 0.00 0.00 36 1014.6
20260906062857 19 270 0.0 0.0 0.00 0.00 0.00 36 1014.6
20260906062455 19 283 0.0 0.0 0.00 0.00 0.00 36 1014.6
20260906062054 20 283 0.0 0.0 0.00 0.00 0.00 36 1014.6
20260906061652 20 272 0.0 0.0 0.00 0.00 0.00 36 1014.6
20260906061251 20 288 0.0 0.0 0.00 0.00 0.00 36 1014.5
20260906060850 20 236 0.0 1.6 0.00 0.00 0.00 35 1014.6
20260906060449 20 227 0.0 0.0 0.00 0.00 0.00 35 1014.6
20260906060048 20 283 0.0 1.6 0.00 0.00 0.00 35 1014.5
20260906055647 20 279 1.6 1.6 0.00 0.00 0.00 35 1014.5
20260906055244 20 274 1.6 1.6 0.00 0.00 0.00 35 1014.5
20260906054843 20 292 0.0 1.6 0.00 0.00 0.00 35 1014.5
20260906054442 20 288 0.0 1.6 0.00 0.00 0.00 34 1014.5
20260906054041 20 308 0.0 0.0 0.00 0.00 0.00 34 1014.6
20260906053640 20 135 0.0 0.0 0.00 0.00 0.00 34 1014.6
20260906053239 21 234 0.0 0.0 0.00 0.00 0.00 34 1014.7
20260906052837 21 235 0.0 0.0 0.00 0.00 0.00 34 1014.7
20260906052436 21 233 0.0 0.0 0.00 0.00 0.00 34 1014.6
20260906051232 21 279 1.6 1.6 0.00 0.00 0.00 33 1014.6
20260906050429 21 288 1.6 1.6 0.00 0.00 0.00 33 1014.7
20260906045627 21 38 1.6 1.6 0.00 0.00 0.00 33 1014.7
20260906045226 21 315 0.0 1.6 0.00 0.00 0.00 32 1014.7
20260906044825 21 270 1.6 1.6 0.00 0.00 0.00 32 1014.7
20260906044423 21 303 0.0 1.6 0.00 0.00 0.00 32 1014.7
20260906044021 21 303 1.6 1.6 0.00 0.00 0.00 32 1014.8
20260906043620 21 346 1.6 1.6 0.00 0.00 0.00 32 1014.8
20260906043219 22 330 1.6 1.6 0.00 0.00 0.00 31 1014.8
20260906042818 22 292 0.0 1.6 0.00 0.00 0.00 31 1014.8
20260906042417 22 301 1.6 3.2 0.00 0.00 0.00 31 1014.8
20260906041213 22 261 0.0 1.6 0.00 0.00 0.00 30 1014.7
20260906040812 23 235 0.0 3.2 0.00 0.00 0.00 30 1014.7
20260906035206 23 261 1.6 1.6 0.00 0.00 0.00 29 1014.5
20260906034805 23 326 1.6 3.2 0.00 0.00 0.00 29 1014.5
20260906034404 23 283 0.0 3.2 0.00 0.00 0.00 29 1014.3
20260906033602 24 306 0.0 0.0 0.00 0.00 0.00 28 1014.3
20260906033200 24 335 0.0 1.6 0.00 0.00 0.00 27 1014.3
20260906032357 25 315 0.0 1.6 0.00 0.00 0.00 27 1014.0
20260906031555 25 333 1.6 1.6 0.00 0.00 0.00 26 1014.1
20260906030752 26 135 0.0 1.6 0.00 0.00 0.00 25 1013.9
20260906030351 26 229 0.0 1.6 0.00 0.00 0.00 25 1013.9
20260906025950 26 212 0.0 3.2 0.00 0.00 0.00 25 1013.8
20260906025549 26 189 0.0 1.6 0.00 0.00 0.00 25 1013.8
20260906025148 26 182 1.6 1.6 0.00 0.00 0.00 24 1013.7
20260906024746 26 87 0.0 1.6 0.00 0.00 0.00 24 1013.7
20260906024345 27 42 0.0 1.6 0.00 0.00 0.00 24 1013.8
20260906023943 27 40 0.0 3.2 0.00 0.00 0.00 23 1013.7
20260906023542 27 76 0.0 1.6 0.00 0.00 0.00 23 1013.8
20260906023142 28 210 0.0 4.8 0.00 0.00 0.00 23 1013.7
20260906022740 28 186 3.2 3.2 0.00 0.00 0.00 22 1013.7
20260906022339 28 173 3.2 3.2 0.00 0.00 0.00 22 1013.6
20260906021937 28 195 1.6 3.2 0.00 0.00 0.00 21 1013.7
20260906021134 29 193 1.6 4.8 0.00 0.00 0.00 21 1013.6
20260906020733 29 135 3.2 3.2 0.00 0.00 0.00 21 1013.7
20260906015931 30 137 1.6 4.8 0.00 0.00 0.00 20 1013.6
20260906015530 30 135 1.6 4.8 0.00 0.00 0.00 20 1013.6
20260906014731 30 135 1.6 3.2 0.00 0.00 0.00 19 1013.5
20260906014325 31 186 4.8 4.8 0.00 0.00 0.00 19 1013.5
20260906013924 31 166 4.8 8.0 0.00 0.00 0.00 19 1013.5
20260906011918 32 198 6.4 6.4 0.00 0.00 0.00 18 1013.6
20260906011517 32 177 6.4 6.4 0.00 0.00 0.00 18 1013.7
20260906011115 32 189 4.8 8.0 0.00 0.00 0.00 17 1013.6
20260906010714 32 175 3.2 4.8 0.00 0.00 0.00 17 1013.5
20260906005915 32 193 4.8 12.9 0.00 0.00 0.00 18 1013.6
20260906004306 33 182 6.4 11.3 0.00 0.00 0.00 16 1013.6
20260906003904 33 189 9.7 9.7 0.00 0.00 0.00 16 1013.6
20260906002300 33 193 9.7 11.3 0.00 0.00 0.00 16 1013.5
20260906001859 33 184 8.0 9.7 0.00 0.00 0.00 17 1013.5
20260906001457 33 185 3.2 9.7 0.00 0.00 0.00 17 1013.5
20260906001056 33 142 6.4 14.5 0.00 0.00 0.00 17 1013.6
20260906000655 33 160 4.8 19.3 0.00 0.00 0.00 15 1013.6
20260906000256 35 184 9.7 9.7 0.00 0.00 0.00 17 1013.6
20260905234648 34 175 6.4 14.5 0.00 0.00 0.00 17 1013.7
20260905234247 35 198 4.8 8.0 0.00 0.00 0.00 17 1013.6
20260905233846 35 184 11.3 14.5 0.00 0.00 0.00 17 1013.6
20260905233445 35 204 6.4 16.1 0.00 0.00 0.00 16 1013.5
20260905233043 36 180 9.7 11.3 0.00 0.00 0.00 16 1013.6
20260905232642 36 187 9.7 12.9 0.00 0.00 0.00 16 1013.6
20260905232240 36 186 9.7 19.3 0.00 0.00 0.00 16 1013.5
20260905231839 36 198 14.5 20.9 0.00 0.00 0.00 16 1013.6
20260905231037 36 171 11.3 16.1 0.00 0.00 0.00 16 1013.7
20260905230636 36 182 12.9 14.5 0.00 0.00 0.00 16 1013.7
20260905230234 36 216 12.9 16.1 0.00 0.00 0.00 16 1013.7
20260905225834 36 186 9.7 24.1 0.00 0.00 0.00 15 1013.8
20260905225432 36 190 11.3 19.3 0.00 0.00 0.00 15 1013.8
20260905225030 36 237 3.2 17.7 0.00 0.00 0.00 15 1013.7
20260905224629 36 81 3.2 14.5 0.00 0.00 0.00 14 1013.8
20260905224229 36 234 9.7 25.7 0.00 0.00 0.00 15 1013.9
20260905223826 36 208 9.7 16.1 0.00 0.00 0.00 15 1013.9
20260905223425 36 279 3.2 12.9 0.00 0.00 0.00 14 1013.9
20260905223055 36 182 17.7 20.9 0.00 0.00 0.00 16 1014.0
20260905223024 36 182 17.7 20.9 0.00 0.00 0.00 16 1014.0
20260905221820 37 184 9.7 14.5 0.00 0.00 0.00 15 1014.1
20260905221418 36 189 8.0 12.9 0.00 0.00 0.00 16 1014.0